This demonstration page uses our WeatherBlox Daily Observations layout. Learn more.

Left ArrowRight Arrow

44.8408, -93.29828

Hourly Observations for September 17, 2016

Temp ( °F °C ) Dew Point ( °F °C ) Humidity (%) Winds ( mph kmh ) Pressure ( in mb ) Visibility ( mi km ) Precip ( " mm )
12:53 am 00:53 Mostly Cloudy 65 18.3 57 13.9 76 76 WSW 5 7 29.82 1010 10 16 0.00 0.00
1:53 am 01:53 Partly Cloudy 64 17.8 57 13.9 78 78 SSW 3 6 29.82 1010 10 16 0.00 0.00
2:53 am 02:53 Mostly Cloudy 63 17.2 57 13.9 81 81 WSW 7 11 29.82 1010 10 16 0.00 0.00
3:53 am 03:53 Mostly Cloudy 62 16.7 56 13.3 80 80 WSW 7 11 29.82 1010 10 16 0.00 0.00
4:53 am 04:53 Mostly Clear 60 15.6 56 13.3 86 86 WSW 6 9 29.82 1010 10 16 0.00 0.00
5:53 am 05:53 Mostly Clear 59 15 56 13.3 90 90 SW 7 11 29.82 1010 10 16 0.00 0.00
6:53 am 06:53 Cloudy 59 15 56 13.3 90 90 W 7 11 29.84 1010 10 16 0.00 0.00
7:33 am 07:33 Mostly Cloudy 59 15 56 13.3 90 90 W 3 6 29.85 1011 10 16 0.00 0.00
7:53 am 07:53 Cloudy 60 15.6 56 13.3 86 86 WNW 6 9 29.86 1011 10 16 0.00 0.00
8:53 am 08:53 Cloudy 59 15 56 13.3 90 90 WNW 8 13 29.88 1012 9 14 0.00 0.00
9:04 am 09:04 Cloudy 61 16 55 13 83 83 W 8 13 29.88 1012 10 16 0.00 0.00
9:18 am 09:18 Cloudy 60 15.6 56 13.3 86 86 WSW 6 9 29.88 1012 9 14 0.00 0.00
9:53 am 09:53 Cloudy 61 16.1 57 13.9 87 87 WSW 9 15 29.89 1012 10 16 0.00 0.00
10:53 am 10:53 Cloudy 63 17.2 56 13.3 78 78 W 10 17 29.89 1012 10 16 0.00 0.00
11:53 am 11:53 Cloudy 65 18.3 56 13.3 73 73 WNW 9 15 29.90 1012 10 16 0.00 0.00
12:27 pm 12:27 Cloudy 66 18.9 56 13.3 70 70 WNW 10 17 29.91 1013 10 16 0.00 0.00
12:53 pm 12:53 Cloudy 66 18.9 56 13.3 70 70 W 9 15 29.90 1012 10 16 0.00 0.00
1:53 pm 13:53 Mostly Cloudy 69 20.6 57 13.9 66 66 W 12 19 29.89 1012 10 16 0.00 0.00
2:53 pm 14:53 Mostly Cloudy 69 20.6 55 12.8 61 61 WNW 13 20 29.88 1012 10 16 0.00 0.00
3:53 pm 15:53 Mostly Cloudy 72 22.2 54 12.2 53 53 W 10 17 29.87 1012 10 16 0.00 0.00
4:53 pm 16:53 Partly Cloudy 72 22.2 50 10 46 46 W 13 20 29.87 1012 10 16 0.00 0.00
5:53 pm 17:53 Mostly Sunny 71 21.7 48 8.9 44 44 WNW 12 19 29.86 1011 10 16 0.00 0.00
6:53 pm 18:53 Sunny 68 20 49 9.4 51 51 WNW 5 7 29.88 1012 10 16 0.00 0.00
7:53 pm 19:53 Clear 66 18.9 50 10 56 56 Calm 29.88 1012 10 16 0.00 0.00
8:53 pm 20:53 Clear 66 18.9 49 9.4 54 54 SSW 3 6 29.89 1012 10 16 0.00 0.00
9:53 pm 21:53 Clear 61 16.1 51 10.6 70 70 Calm 29.89 1012 10 16 0.00 0.00
10:53 pm 22:53 Clear 62 16.7 50 10 65 65 S 3 6 29.90 1013 10 16 0.00 0.00
11:53 pm 23:53 Clear 60 15.6 53 11.7 78 78 SSW 5 7 29.91 1013 10 16 0.00 0.00

Powered by AerisWeather